#timestamp,LO_Frequency,Hit,StdDev 
1457064015.7,286047005.5,Y
1457064035.5,286047002.1,P
1457064055.3,286047002.2,P
1457064075.2,286047001.6,P
1457064095.9,286047000.2,N
1457064115.7,286047002.0,N
1457064135.6,286047002.6,Y
1457064155.4,286047000.1,P
1457064175.2,286047000.2,N
1457064195.1,286047002.8,P
1457064196.0,286047002.8,N
1457064215.8,286047002.1,N
1457064235.6,286046999.7,N
1457064255.5,286047000.5,N
1457064275.3,286047000.7,N
1457064295.1,286046998.1,N
1457064315.9,286046998.5,N
1457064335.7,286046999.0,N
1457064355.5,286047002.6,N
1457064375.3,286047001.5,N
1457064395.2,286047004.1,N
1457064415.0,286047000.6,N
1457064415.9,286047000.6,N
1457064435.7,286047002.7,N
1457064455.6,286046998.4,N
1457064475.4,286047000.5,N
1457064495.2,286047004.2,N
1457064515.1,286047004.0,N
1457064516.0,286047004.0,N
1457064535.8,286047001.4,N
1457064555.6,286047001.3,N
1457064575.5,286047002.0,N
1457064595.3,286047005.7,Y
1457064615.1,286047001.5,P
1457064635.9,286047003.8,P
1457064655.7,286047003.6,P
1457064675.5,286046999.7,N
1457064695.4,286047007.4,Y
1457064715.2,286047003.1,P
1457064735.0,286047004.1,P
1457064735.9,286047004.1,P
1457064755.8,286047004.1,Y
1457064775.6,286046996.6,P
1457064795.4,286046997.6,N
1457064815.3,286046997.9,N
1457064835.1,286046997.3,N
1457064836.0,286046997.3,N
1457064855.8,286046998.8,N
1457064875.7,286046997.1,N
1457064895.5,286046997.0,N
1457064915.3,286046999.6,N
1457064935.1,286046997.2,N
1457064955.9,286046997.1,N
1457064975.7,286046999.3,N
1457064995.5,286046998.9,N
1457065015.4,286047000.3,N
1457065035.2,286047000.8,N
1457065055.0,286047001.2,N
1457065055.9,286047001.2,N
1457065075.8,286046999.1,N
1457065095.6,286046999.1,N
1457065115.4,286046998.5,N
1457065135.3,286046998.5,N
1457065155.1,286047001.1,N
1457065156.0,286047001.1,N
1457065175.8,286047000.0,N
1457065195.7,286047000.0,N
1457065215.5,286046998.5,N
1457065235.3,286047002.1,N
1457065255.1,286046999.7,N
1457065275.9,286047004.4,N
1457065295.7,286047000.4,N
1457065315.5,286047001.7,N
1457065335.4,286047003.0,N
1457065355.2,286047000.8,N
1457065375.0,286046999.9,N
1457065375.9,286046999.9,N
1457065395.8,286046999.4,N
1457065415.6,286046998.3,N
1457065435.4,286047001.2,N
1457065455.3,286047000.6,N
1457065475.1,286047002.0,N
1457065476.0,286047002.0,N
1457065495.8,286047000.5,N
1457065515.7,286047000.6,N
1457065535.5,286047000.8,N
1457065555.3,286046998.3,N
1457065575.2,286047001.0,N
1457065595.9,286047004.4,Y
1457065615.7,286046999.6,P
1457065635.6,286046998.7,P
1457065655.4,286046997.0,P
1457065675.2,286046998.9,N
1457065695.0,286046998.6,N
1457065696.0,286046998.6,N
1457065715.8,286047001.1,N
1457065735.6,286047005.2,Y
1457065755.5,286047005.5,P
1457065775.3,286047000.5,N
1457065795.1,286046999.2,N
1457065815.8,286046995.8,N
1457065835.7,286046993.3,N
1457065855.5,286046994.7,N
1457065875.3,286046993.9,N
1457065895.2,286046994.4,N
1457065915.9,286046992.5,N
1457065935.7,286046991.0,N
1457065955.6,286046993.0,N
1457065975.4,286046993.3,N
1457065995.2,286046994.6,N
1457066015.1,286046994.0,N
1457066016.0,286046994.0,N
1457066035.8,286046992.8,N
1457066055.6,286046990.2,N
1457066075.5,286046992.6,N
1457066095.3,286046989.3,N
1457066115.1,286046986.9,Y
1457066135.9,286046990.3,P
1457066155.7,286046992.6,P
1457066175.5,286046992.1,P
1457066195.4,286046991.8,Y
1457066215.2,286047002.4,P
1457066235.0,286047000.9,N
1457066235.9,286047000.9,N
1457066255.8,286047000.8,N
1457066275.6,286047001.9,N
1457066295.4,286047003.2,N
1457066315.3,286047005.9,N
1457066335.1,286047004.0,N
1457066336.0,286047004.0,N
1457066355.8,286047005.7,N
1457066375.6,286047002.0,N
1457066395.5,286047000.5,N
1457066415.3,286047000.9,N
1457066435.1,286046997.0,N
1457066455.9,286046999.3,N
1457066475.7,286046997.6,N
1457066495.5,286046994.8,N
1457066515.4,286046994.8,N
1457066535.2,286046991.6,N
1457066555.0,286046986.9,Y
1457066555.9,286046986.9,P
1457066575.8,286046991.0,N
1457066595.6,286046988.2,N
1457066615.4,286046989.9,N
1457066635.3,286046990.9,N
1457066655.1,286046993.0,N
1457066656.0,286046993.0,N
1457066675.8,286046987.3,Y
1457066695.7,286046997.9,P
1457066715.5,286046995.2,N
1457066735.3,286046995.1,N
1457066755.2,286046996.6,N
1457066775.9,286047002.2,N
1457066795.7,286047005.5,N
1457066815.6,286047006.9,N
1457066835.4,286047009.9,N
1457066855.2,286047014.2,N
1457066875.0,286047019.7,N
1457066875.9,286047019.7,N
1457066895.8,286047020.8,N
1457066915.6,286047021.5,N
1457066935.4,286047020.7,N
1457066955.3,286047017.5,N
1457066975.1,286047019.5,N
1457066995.8,286047024.3,N
1457067015.7,286047024.7,N
1457067035.5,286047022.7,N
1457067055.3,286047026.4,N
1457067075.2,286047023.5,N
1457067095.9,286047021.1,N
1457067115.7,286047021.7,N
1457067135.5,286047024.6,N
1457067155.4,286047025.8,N
1457067175.2,286047022.4,N
1457067195.0,286047018.5,N
1457067195.9,286047018.5,N
1457067215.8,286047016.5,N
1457067235.6,286047018.5,N
1457067255.4,286047016.1,N
1457067275.3,286047017.0,N
1457067295.1,286047018.8,N
1457067315.8,286047017.8,N
1457067335.7,286047017.7,Y
1457067355.5,286046997.2,P
1457067375.3,286046999.2,N
1457067395.2,286046999.3,N
1457067415.9,286046999.9,N
1457067435.7,286047000.6,N
1457067455.6,286047003.7,N
1457067475.4,286047003.4,N
1457067495.2,286047005.8,N
1457067515.0,286047005.7,N
1457067516.0,286047005.7,N
1457067535.8,286047008.6,N
1457067555.6,286047012.3,N
1457067575.4,286047013.8,N
1457067595.3,286047013.3,N
